Tracking 31027 objects as of 19-Jul-2025
HD Live streaming from Space Station
objects crossing your sky now

FENGYUN 1C DEB

Track FENGYUN 1C DEB now!
10-day predictions


NORAD ID: 29843
Int'l Code: 1999-025EM
Perigee: 666.0 km
Apogee: 943.5 km
Inclination: 99.0 °
Period: 100.8 minutes
Semi major axis: 7175 km
RCS: 0.054 m2 (small)
Launch date: May 10, 1999
Source: People's Republic of China (PRC)
Launch site: Taiyaun Space Center, China (TSC)

Note: This is SATELLITE DEBRIS
Your satellite tracking list
Your tracking list is empty




NASA's NSSDC Master Catalog

Two Line Element Set (TLE):
1 29843U 99025EM  25199.53344519  .00000307  00000-0  11833-3 0  9990
2 29843  99.0490  32.4609 0193355 356.8648  61.9790 14.28249517961808
Source of the keplerian elements: AFSPC